Location: Engelmannsreuth
(49.8125°N, 11.6497°E)
Time: 08:31:35
(UTC+00:00)

ATLAS CENTAUR R/B - Pass Details

Date: 17 February 2020
Orbit: 466 x 681 km, 64.7° (Epoch: 28 March)

Event Time Altitude Azimuth Distance (km) Brightness Sun altitude
Exits shadow 03:43:11 69° 115° (ESE) 681 1.8 -26.0°
Drops below altitude 10° 03:47:31 10° 44° (NE) 1,967 4.8 -25.3°
Sets 03:49:43 0° 42° (NE) 2,839 5.8 -25.0°
